Back to catalog

SL-14 DEB

AlivePO
NORAD 45312·DEBRIS·🇷🇺 Russia

Launched Aug 15, 1991 from Plesetsk Cosmodrome

Loading…

Next Passes (next 24 hours)

TLE

FreshSource: Space-Track

Epoch: Sep 14, 2026, 10:07 UTC

1 45312U 91056BA  26257.42159403  .00000534  00000-0  12855-2 0  9991
2 45312  82.5151  62.5357 0013213 242.2466 117.7319 13.20582782316336

Track SL-14 DEB in real time with AllMySat

Download on the App Store